Time,TemperatureF,DewpointF,PressureIn,WindDirection,WindDirectionDegrees,WindSpeedMPH,WindSpeedGustMPH,Humidity,HourlyPrecipIn,Conditions,Clouds,dailyrainin,SoftwareType,DateUTC
2013-09-14 00:00:00,70.1,54.0,29.65,NNW,328,0.0,0.0,57,0.00,,,0.00,weatherlink.com 1.10,2013-09-14 07:00:00,
2013-09-14 00:16:00,69.5,54.0,29.64,NNW,328,0.0,0.0,59,0.00,,,0.00,weatherlink.com 1.10,2013-09-14 07:16:00,
2013-09-14 00:31:00,68.8,54.0,29.64,NNW,328,0.0,0.0,60,0.00,,,0.00,weatherlink.com 1.10,2013-09-14 07:31:00,
2013-09-14 00:46:00,68.3,55.0,29.65,NNW,328,0.0,0.0,62,0.00,,,0.00,weatherlink.com 1.10,2013-09-14 07:46:00,
2013-09-14 01:01:00,67.8,55.0,29.64,NNW,328,0.0,0.0,63,0.00,,,0.00,weatherlink.com 1.10,2013-09-14 08:01:00,
2013-09-14 01:16:00,67.4,54.0,29.64,NNW,328,0.0,0.0,63,0.00,,,0.00,weatherlink.com 1.10,2013-09-14 08:16:00,
2013-09-14 01:31:00,67.4,54.0,29.64,NNW,328,0.0,0.0,62,0.00,,,0.00,weatherlink.com 1.10,2013-09-14 08:31:00,
2013-09-14 01:46:00,67.7,53.0,29.64,NNW,328,0.0,0.0,60,0.00,,,0.00,weatherlink.com 1.10,2013-09-14 08:46:00,
2013-09-14 02:01:00,67.9,52.0,29.64,NNW,327,0.0,0.0,58,0.00,,,0.00,weatherlink.com 1.10,2013-09-14 09:01:00,
2013-09-14 02:16:00,68.2,51.0,29.63,NNW,327,0.0,0.0,55,0.00,,,0.00,weatherlink.com 1.10,2013-09-14 09:16:00,
2013-09-14 02:31:00,68.4,51.0,29.64,NNW,327,0.0,0.0,55,0.00,,,0.00,weatherlink.com 1.10,2013-09-14 09:31:00,
2013-09-14 02:46:00,68.9,52.0,29.63,NNW,327,0.0,0.0,56,0.00,,,0.00,weatherlink.com 1.10,2013-09-14 09:46:00,
2013-09-14 03:01:00,68.8,52.0,29.63,NNW,328,0.0,0.0,56,0.00,,,0.00,weatherlink.com 1.10,2013-09-14 10:01:00,
2013-09-14 03:16:00,68.4,52.0,29.63,NNW,328,0.0,0.0,56,0.00,,,0.00,weatherlink.com 1.10,2013-09-14 10:16:00,
2013-09-14 03:31:00,68.1,51.0,29.63,NNW,328,0.0,0.0,55,0.00,,,0.00,weatherlink.com 1.10,2013-09-14 10:31:00,
2013-09-14 03:46:00,67.8,51.0,29.63,NNW,328,0.0,0.0,56,0.00,,,0.00,weatherlink.com 1.10,2013-09-14 10:46:00,
2013-09-14 04:01:00,67.7,51.0,29.63,NNW,328,0.0,0.0,55,0.00,,,0.00,weatherlink.com 1.10,2013-09-14 11:01:00,
2013-09-14 04:16:00,68.5,51.0,29.63,NNW,328,0.0,0.0,53,0.00,,,0.00,weatherlink.com 1.10,2013-09-14 11:16:00,
2013-09-14 04:31:00,68.7,50.0,29.63,NNW,327,0.0,0.0,52,0.00,,,0.00,weatherlink.com 1.10,2013-09-14 11:31:00,
2013-09-14 04:46:00,68.8,52.0,29.63,NNW,327,0.0,0.0,55,0.00,,,0.00,weatherlink.com 1.10,2013-09-14 11:46:00,
2013-09-14 05:01:00,68.5,52.0,29.63,NNW,327,0.0,0.0,56,0.00,,,0.00,weatherlink.com 1.10,2013-09-14 12:01:00,
2013-09-14 05:16:00,67.9,51.0,29.63,NNW,328,0.0,0.0,56,0.00,,,0.00,weatherlink.com 1.10,2013-09-14 12:16:00,
2013-09-14 05:31:00,67.1,52.0,29.64,NNW,328,0.0,0.0,58,0.00,,,0.00,weatherlink.com 1.10,2013-09-14 12:31:00,
2013-09-14 05:46:00,66.5,52.0,29.64,NNW,328,0.0,0.0,59,0.00,,,0.00,weatherlink.com 1.10,2013-09-14 12:46:00,
2013-09-14 06:01:00,66.3,51.0,29.64,NNW,328,0.0,0.0,59,0.00,,,0.00,weatherlink.com 1.10,2013-09-14 13:01:00,
2013-09-14 06:16:00,66.5,52.0,29.64,NNW,328,0.0,0.0,59,0.00,,,0.00,weatherlink.com 1.10,2013-09-14 13:16:00,
2013-09-14 06:31:00,66.4,51.0,29.65,NNW,328,0.0,0.0,59,0.00,,,0.00,weatherlink.com 1.10,2013-09-14 13:31:00,
2013-09-14 06:46:00,66.6,52.0,29.65,NNW,328,0.0,0.0,59,0.00,,,0.00,weatherlink.com 1.10,2013-09-14 13:46:00,
2013-09-14 07:01:00,66.9,52.0,29.66,NNW,328,0.0,0.0,59,0.00,,,0.00,weatherlink.com 1.10,2013-09-14 14:01:00,
2013-09-14 07:16:00,67.1,53.0,29.66,NNW,327,0.0,0.0,60,0.00,,,0.00,weatherlink.com 1.10,2013-09-14 14:16:00,
2013-09-14 07:31:00,67.2,52.0,29.66,NNW,327,0.0,0.0,59,0.00,,,0.00,weatherlink.com 1.10,2013-09-14 14:31:00,
2013-09-14 07:46:00,67.5,52.0,29.66,NNW,327,0.0,0.0,59,0.00,,,0.00,weatherlink.com 1.10,2013-09-14 14:46:00,
2013-09-14 08:01:00,68.5,54.0,29.66,NNW,327,0.0,0.0,61,0.00,,,0.00,weatherlink.com 1.10,2013-09-14 15:01:00,
2013-09-14 08:16:00,73.2,54.0,29.66,NNW,328,0.0,0.0,51,0.00,,,0.00,weatherlink.com 1.10,2013-09-14 15:16:00,
2013-09-14 08:31:00,73.6,55.0,29.66,NNW,328,0.0,0.0,52,0.00,,,0.00,weatherlink.com 1.10,2013-09-14 15:31:00,
2013-09-14 08:46:00,74.4,54.0,29.66,NNW,327,0.0,0.0,50,0.00,,,0.00,weatherlink.com 1.10,2013-09-14 15:46:00,
2013-09-14 09:01:00,75.6,54.0,29.66,NNW,327,0.0,0.0,48,0.00,,,0.00,weatherlink.com 1.10,2013-09-14 16:01:00,
2013-09-14 09:16:00,76.9,55.0,29.66,NNW,328,0.0,0.0,47,0.00,,,0.00,weatherlink.com 1.10,2013-09-14 16:16:00,
2013-09-14 09:31:00,78.0,55.0,29.66,NNW,328,0.0,0.0,45,0.00,,,0.00,weatherlink.com 1.10,2013-09-14 16:31:00,
2013-09-14 09:46:00,79.6,55.0,29.66,NNW,328,0.0,0.0,43,0.00,,,0.00,weatherlink.com 1.10,2013-09-14 16:46:00,
2013-09-14 10:02:00,80.8,55.0,29.66,NNW,328,0.0,0.0,41,0.00,,,0.00,weatherlink.com 1.10,2013-09-14 17:02:00,
2013-09-14 10:17:00,81.8,56.0,29.66,NNW,328,0.0,1.0,42,0.00,,,0.00,weatherlink.com 1.10,2013-09-14 17:17:00,
2013-09-14 10:32:00,82.3,56.0,29.66,West,262,0.0,4.0,41,0.00,,,0.00,weatherlink.com 1.10,2013-09-14 17:32:00,
2013-09-14 10:47:00,82.7,56.0,29.66,WNW,285,1.0,2.0,40,0.00,,,0.00,weatherlink.com 1.10,2013-09-14 17:47:00,
2013-09-14 11:02:00,83.2,56.0,29.66,NW,311,0.0,3.0,40,0.00,,,0.00,weatherlink.com 1.10,2013-09-14 18:02:00,
2013-09-14 11:17:00,83.6,59.0,29.66,West,264,0.0,3.0,43,0.00,,,0.00,weatherlink.com 1.10,2013-09-14 18:17:00,
2013-09-14 11:32:00,83.6,59.0,29.66,NW,311,0.0,5.0,43,0.00,,,0.00,weatherlink.com 1.10,2013-09-14 18:32:00,
2013-09-14 11:47:00,84.1,61.0,29.66,NW,310,5.0,5.0,45,0.00,,,0.00,weatherlink.com 1.10,2013-09-14 18:47:00,
2013-09-14 12:02:00,84.1,61.0,29.65,WSW,244,2.0,6.0,46,0.00,,,0.00,weatherlink.com 1.10,2013-09-14 19:02:00,
2013-09-14 12:17:00,83.7,61.0,29.64,West,268,0.0,6.0,46,0.00,,,0.00,weatherlink.com 1.10,2013-09-14 19:17:00,
2013-09-14 12:32:00,83.9,62.0,29.65,WNW,302,0.0,5.0,48,0.00,,,0.00,weatherlink.com 1.10,2013-09-14 19:32:00,
2013-09-14 12:47:00,84.0,62.0,29.65,NW,311,0.0,7.0,48,0.00,,,0.00,weatherlink.com 1.10,2013-09-14 19:47:00,
2013-09-14 13:02:00,84.3,62.0,29.64,NW,321,0.0,5.0,47,0.00,,,0.00,weatherlink.com 1.10,2013-09-14 20:02:00,
2013-09-14 13:17:00,84.1,62.0,29.64,NNW,333,0.0,8.0,47,0.00,,,0.00,weatherlink.com 1.10,2013-09-14 20:17:00,
2013-09-14 13:32:00,85.1,62.0,29.63,NNW,332,0.0,6.0,46,0.00,,,0.00,weatherlink.com 1.10,2013-09-14 20:32:00,
2013-09-14 13:47:00,83.9,61.0,29.62,NW,311,0.0,8.0,46,0.00,,,0.00,weatherlink.com 1.10,2013-09-14 20:47:00,
2013-09-14 14:02:00,85.1,61.0,29.63,West,266,5.0,7.0,45,0.00,,,0.00,weatherlink.com 1.10,2013-09-14 21:02:00,
2013-09-14 14:17:00,84.8,61.0,29.62,WNW,288,0.0,8.0,45,0.00,,,0.00,weatherlink.com 1.10,2013-09-14 21:17:00,
2013-09-14 14:32:00,83.4,60.0,29.62,NW,323,0.0,7.0,45,0.00,,,0.00,weatherlink.com 1.10,2013-09-14 21:32:00,
2013-09-14 14:47:00,84.3,60.0,29.61,NW,305,1.0,6.0,44,0.00,,,0.00,weatherlink.com 1.10,2013-09-14 21:47:00,
2013-09-14 15:02:00,84.5,61.0,29.61,WNW,289,0.0,5.0,45,0.00,,,0.00,weatherlink.com 1.10,2013-09-14 22:02:00,
2013-09-14 15:17:00,84.6,61.0,29.61,NW,321,0.0,7.0,45,0.00,,,0.00,weatherlink.com 1.10,2013-09-14 22:17:00,
2013-09-14 15:32:00,84.6,61.0,29.60,NNW,336,0.0,7.0,45,0.00,,,0.00,weatherlink.com 1.10,2013-09-14 22:32:00,
2013-09-14 15:47:00,84.5,61.0,29.60,WNW,295,0.0,5.0,45,0.00,,,0.00,weatherlink.com 1.10,2013-09-14 22:47:00,
2013-09-14 16:02:00,83.9,60.0,29.60,WSW,253,0.0,7.0,45,0.00,,,0.00,weatherlink.com 1.10,2013-09-14 23:02:00,
2013-09-14 16:17:00,83.9,60.0,29.60,WSW,255,0.0,7.0,44,0.00,,,0.00,weatherlink.com 1.10,2013-09-14 23:17:00,
2013-09-14 16:32:00,83.6,59.0,29.59,NW,325,0.0,5.0,44,0.00,,,0.00,weatherlink.com 1.10,2013-09-14 23:32:00,
2013-09-14 16:47:00,83.6,59.0,29.60,NW,323,0.0,2.0,43,0.00,,,0.00,weatherlink.com 1.10,2013-09-14 23:47:00,
2013-09-14 17:02:00,83.4,59.0,29.60,NW,319,0.0,2.0,43,0.00,,,0.00,weatherlink.com 1.10,2013-09-15 00:02:00,
2013-09-14 17:17:00,82.9,58.0,29.60,West,281,0.0,3.0,43,0.00,,,0.00,weatherlink.com 1.10,2013-09-15 00:17:00,
2013-09-14 17:32:00,82.2,57.0,29.60,West,269,0.0,4.0,43,0.00,,,0.00,weatherlink.com 1.10,2013-09-15 00:32:00,
2013-09-14 17:47:00,81.8,58.0,29.60,West,269,0.0,0.0,44,0.00,,,0.00,weatherlink.com 1.10,2013-09-15 00:47:00,
2013-09-14 18:02:00,81.3,58.0,29.60,West,280,0.0,1.0,45,0.00,,,0.00,weatherlink.com 1.10,2013-09-15 01:02:00,
2013-09-14 18:17:00,80.8,56.0,29.60,NW,306,0.0,1.0,43,0.00,,,0.00,weatherlink.com 1.10,2013-09-15 01:17:00,
2013-09-14 18:32:00,80.0,56.0,29.60,NW,308,0.0,1.0,44,0.00,,,0.00,weatherlink.com 1.10,2013-09-15 01:32:00,
2013-09-14 18:47:00,79.6,56.0,29.61,NW,308,0.0,0.0,45,0.00,,,0.00,weatherlink.com 1.10,2013-09-15 01:47:00,
2013-09-14 19:02:00,78.9,55.0,29.60,NW,308,0.0,0.0,44,0.00,,,0.00,weatherlink.com 1.10,2013-09-15 02:02:00,
2013-09-14 19:17:00,78.0,54.0,29.61,NW,308,0.0,0.0,44,0.00,,,0.00,weatherlink.com 1.10,2013-09-15 02:17:00,
2013-09-14 19:32:00,77.0,54.0,29.61,NW,307,0.0,0.0,45,0.00,,,0.00,weatherlink.com 1.10,2013-09-15 02:32:00,
2013-09-14 19:47:00,76.1,54.0,29.61,NW,307,0.0,0.0,47,0.00,,,0.00,weatherlink.com 1.10,2013-09-15 02:47:00,
2013-09-14 20:17:00,74.4,54.0,29.61,NW,308,0.0,0.0,49,0.00,,,0.00,weatherlink.com 1.10,2013-09-15 03:17:00,
2013-09-14 20:32:00,73.8,54.0,29.62,NW,308,0.0,0.0,51,0.00,,,0.00,weatherlink.com 1.10,2013-09-15 03:32:00,
2013-09-14 20:47:00,73.2,54.0,29.62,NW,308,0.0,0.0,52,0.00,,,0.00,weatherlink.com 1.10,2013-09-15 03:47:00,
2013-09-14 21:02:00,72.6,55.0,29.62,NW,307,0.0,0.0,54,0.00,,,0.00,weatherlink.com 1.10,2013-09-15 04:02:00,
2013-09-14 21:17:00,72.0,54.0,29.62,NW,307,0.0,0.0,54,0.00,,,0.00,weatherlink.com 1.10,2013-09-15 04:17:00,
2013-09-14 21:32:00,71.3,53.0,29.62,NW,308,0.0,0.0,52,0.00,,,0.00,weatherlink.com 1.10,2013-09-15 04:32:00,
2013-09-14 21:47:00,71.1,52.0,29.62,NW,307,0.0,0.0,52,0.00,,,0.00,weatherlink.com 1.10,2013-09-15 04:47:00,
2013-09-14 22:02:00,70.9,51.0,29.62,NW,308,0.0,0.0,50,0.00,,,0.00,weatherlink.com 1.10,2013-09-15 05:02:00,
2013-09-14 22:17:00,71.2,52.0,29.62,NW,308,0.0,0.0,50,0.00,,,0.00,weatherlink.com 1.10,2013-09-15 05:17:00,
2013-09-14 22:32:00,71.4,51.0,29.62,NW,308,0.0,0.0,48,0.00,,,0.00,weatherlink.com 1.10,2013-09-15 05:32:00,
2013-09-14 22:47:00,71.9,51.0,29.62,NW,308,0.0,0.0,48,0.00,,,0.00,weatherlink.com 1.10,2013-09-15 05:47:00,
2013-09-14 23:02:00,72.3,51.0,29.62,NW,307,0.0,0.0,47,0.00,,,0.00,weatherlink.com 1.10,2013-09-15 06:02:00,
2013-09-14 23:17:00,72.3,51.0,29.62,NW,308,0.0,0.0,47,0.00,,,0.00,weatherlink.com 1.10,2013-09-15 06:17:00,
2013-09-14 23:32:00,72.2,52.0,29.62,NW,308,0.0,0.0,49,0.00,,,0.00,weatherlink.com 1.10,2013-09-15 06:32:00,
2013-09-14 23:47:00,72.0,52.0,29.62,NW,307,0.0,0.0,49,0.00,,,0.00,weatherlink.com 1.10,2013-09-15 06:47:00,